Year,Month,Day,Hour,Minute,Value (Times are PST for temperature in C)
2013,04,24,00,00,10.50
2013,04,24,00,01,10.50
2013,04,24,00,02,10.50
2013,04,24,00,03,10.50
2013,04,24,00,04,10.50
2013,04,24,00,05,10.50
2013,04,24,00,06,10.50
2013,04,24,00,07,10.50
2013,04,24,00,08,10.50
2013,04,24,00,09,10.50
2013,04,24,00,10,10.50
2013,04,24,00,11,10.60
2013,04,24,00,12,10.60
2013,04,24,00,13,10.60
2013,04,24,00,14,10.60
2013,04,24,00,15,10.60
2013,04,24,00,16,10.60
2013,04,24,00,17,10.60
2013,04,24,00,18,10.70
2013,04,24,00,19,10.70
2013,04,24,00,20,10.70
2013,04,24,00,21,10.70
2013,04,24,00,22,10.60
2013,04,24,00,23,10.60
2013,04,24,00,24,10.60
2013,04,24,00,25,10.60
2013,04,24,00,26,10.60
2013,04,24,00,27,10.60
2013,04,24,00,28,10.60
2013,04,24,00,29,10.50
2013,04,24,00,30,10.50
2013,04,24,00,31,10.50
2013,04,24,00,32,10.40
2013,04,24,00,33,10.40
2013,04,24,00,34,10.40
2013,04,24,00,35,10.40
2013,04,24,00,36,10.40
2013,04,24,00,37,10.40
2013,04,24,00,38,10.40
2013,04,24,00,39,10.40
2013,04,24,00,40,10.40
2013,04,24,00,41,10.40
2013,04,24,00,42,10.40
2013,04,24,00,43,10.50
2013,04,24,00,44,10.50
2013,04,24,00,45,10.50
2013,04,24,00,46,10.60
2013,04,24,00,47,10.60
2013,04,24,00,48,10.60
2013,04,24,00,49,10.60
2013,04,24,00,50,10.60
2013,04,24,00,51,10.60
2013,04,24,00,52,10.60
2013,04,24,00,53,10.50
2013,04,24,00,54,10.50
2013,04,24,00,55,10.50
2013,04,24,00,56,10.50
2013,04,24,00,57,10.40
2013,04,24,00,58,10.40
2013,04,24,00,59,10.40
2013,04,24,01,00,10.40
2013,04,24,01,01,10.40
2013,04,24,01,02,10.30
2013,04,24,01,03,10.30
2013,04,24,01,04,10.30
2013,04,24,01,05,10.30
2013,04,24,01,06,10.30
2013,04,24,01,07,10.30
2013,04,24,01,08,10.20
2013,04,24,01,09,10.20
2013,04,24,01,10,10.20
2013,04,24,01,11,10.20
2013,04,24,01,12,10.30
2013,04,24,01,13,10.30
2013,04,24,01,14,10.30
2013,04,24,01,15,10.30
2013,04,24,01,16,10.30
2013,04,24,01,17,10.30
2013,04,24,01,18,10.30
2013,04,24,01,19,10.30
2013,04,24,01,20,10.30
2013,04,24,01,21,10.30
2013,04,24,01,22,10.30
2013,04,24,01,23,10.30
2013,04,24,01,24,10.30
2013,04,24,01,25,10.30
2013,04,24,01,26,10.20
2013,04,24,01,27,10.20
2013,04,24,01,28,10.20
2013,04,24,01,29,10.20
2013,04,24,01,30,10.20
2013,04,24,01,31,10.20
2013,04,24,01,32,10.20
2013,04,24,01,33,10.20
2013,04,24,01,34,10.20
2013,04,24,01,35,10.10
2013,04,24,01,36,10.10
2013,04,24,01,37,10.10
2013,04,24,01,38,10.10
2013,04,24,01,39,10.10
2013,04,24,01,40,10.10
2013,04,24,01,41,10.00
2013,04,24,01,42,10.00
2013,04,24,01,43,10.00
2013,04,24,01,44,10.00
2013,04,24,01,45,10.00
2013,04,24,01,46,10.00
2013,04,24,01,47,10.00
2013,04,24,01,48,10.00
2013,04,24,01,49,10.00
2013,04,24,01,50,10.00
2013,04,24,01,51,9.90
2013,04,24,01,52,9.90
2013,04,24,01,53,9.90
2013,04,24,01,54,9.90
2013,04,24,01,55,9.90
2013,04,24,01,56,10.00
2013,04,24,01,57,10.00
2013,04,24,01,58,10.00
2013,04,24,01,59,10.10
2013,04,24,02,00,10.10
2013,04,24,02,01,10.10
2013,04,24,02,02,10.10
2013,04,24,02,03,10.10
2013,04,24,02,04,10.10
2013,04,24,02,05,10.10
2013,04,24,02,06,10.10
2013,04,24,02,07,10.10
2013,04,24,02,08,10.10
2013,04,24,02,09,10.20
2013,04,24,02,10,10.20
2013,04,24,02,11,10.20
2013,04,24,02,12,10.20
2013,04,24,02,13,10.30
2013,04,24,02,14,10.30
2013,04,24,02,15,10.30
2013,04,24,02,16,10.30
2013,04,24,02,17,10.30
2013,04,24,02,18,10.30
2013,04,24,02,19,10.30
2013,04,24,02,20,10.30
2013,04,24,02,21,10.30
2013,04,24,02,22,10.30
2013,04,24,02,23,10.30
2013,04,24,02,24,10.20
2013,04,24,02,25,10.20
2013,04,24,02,26,10.20
2013,04,24,02,27,10.10
2013,04,24,02,28,10.10
2013,04,24,02,29,10.10
2013,04,24,02,30,10.10
2013,04,24,02,31,10.10
2013,04,24,02,32,10.10
2013,04,24,02,33,10.00
2013,04,24,02,34,10.00
2013,04,24,02,35,10.00
2013,04,24,02,36,9.90
2013,04,24,02,37,9.90
2013,04,24,02,38,9.90
2013,04,24,02,39,9.90
2013,04,24,02,40,9.80
2013,04,24,02,41,9.80
2013,04,24,02,42,9.80
2013,04,24,02,43,9.80
2013,04,24,02,44,9.80
2013,04,24,02,45,9.80
2013,04,24,02,46,9.80
2013,04,24,02,47,9.80
2013,04,24,02,48,9.70
2013,04,24,02,49,9.70
2013,04,24,02,50,9.70
2013,04,24,02,51,9.70
2013,04,24,02,52,9.60
2013,04,24,02,53,9.60
2013,04,24,02,54,9.60
2013,04,24,02,55,9.60
2013,04,24,02,56,9.60
2013,04,24,02,57,9.60
2013,04,24,02,58,9.50
2013,04,24,02,59,9.50
2013,04,24,03,00,9.50
2013,04,24,03,01,9.40
2013,04,24,03,02,9.40
2013,04,24,03,03,9.40
2013,04,24,03,04,9.40
2013,04,24,03,05,9.40
2013,04,24,03,06,9.40
2013,04,24,03,07,9.40
2013,04,24,03,08,9.40
2013,04,24,03,09,9.40
2013,04,24,03,10,9.40
2013,04,24,03,11,9.40
2013,04,24,03,12,9.40
2013,04,24,03,13,9.50
2013,04,24,03,14,9.50
2013,04,24,03,15,9.50
2013,04,24,03,16,9.50
2013,04,24,03,17,9.40
2013,04,24,03,18,9.40
2013,04,24,03,19,9.40
2013,04,24,03,20,9.40
2013,04,24,03,21,9.40
2013,04,24,03,22,9.40
2013,04,24,03,23,9.40
2013,04,24,03,24,9.40
2013,04,24,03,25,9.40
2013,04,24,03,26,9.30
2013,04,24,03,27,9.30
2013,04,24,03,28,9.30
2013,04,24,03,29,9.30
2013,04,24,03,30,9.30
2013,04,24,03,31,9.30
2013,04,24,03,32,9.30
2013,04,24,03,33,9.30
2013,04,24,03,34,9.30
2013,04,24,03,35,9.30
2013,04,24,03,36,9.30
2013,04,24,03,37,9.30
2013,04,24,03,38,9.30
2013,04,24,03,39,9.30
2013,04,24,03,40,9.30
2013,04,24,03,41,9.30
2013,04,24,03,42,9.20
2013,04,24,03,43,9.20
2013,04,24,03,44,9.20
2013,04,24,03,45,9.20
2013,04,24,03,46,9.20
2013,04,24,03,47,9.20
2013,04,24,03,48,9.20
2013,04,24,03,49,9.20
2013,04,24,03,50,9.20
2013,04,24,03,51,9.20
2013,04,24,03,52,9.10
2013,04,24,03,53,9.10
2013,04,24,03,54,9.10
2013,04,24,03,55,9.10
2013,04,24,03,56,9.10
2013,04,24,03,57,9.00
2013,04,24,03,58,9.00
2013,04,24,03,59,9.00
2013,04,24,04,00,9.00
2013,04,24,04,01,9.00
2013,04,24,04,02,9.00
2013,04,24,04,03,8.90
2013,04,24,04,04,8.90
2013,04,24,04,05,8.90
2013,04,24,04,06,8.90
2013,04,24,04,07,8.90
2013,04,24,04,08,8.90
2013,04,24,04,09,8.80
2013,04,24,04,10,8.80
2013,04,24,04,11,8.80
2013,04,24,04,12,8.80
2013,04,24,04,13,8.80
2013,04,24,04,14,8.70
2013,04,24,04,15,8.70
2013,04,24,04,16,8.70
2013,04,24,04,17,8.70
2013,04,24,04,18,8.60
2013,04,24,04,19,8.60
2013,04,24,04,20,8.60
2013,04,24,04,21,8.60
2013,04,24,04,22,8.60
2013,04,24,04,23,8.50
2013,04,24,04,24,8.50
2013,04,24,04,25,8.50
2013,04,24,04,26,8.40
2013,04,24,04,27,8.40
2013,04,24,04,28,8.40
2013,04,24,04,29,8.40
2013,04,24,04,30,8.40
2013,04,24,04,31,8.40
2013,04,24,04,32,8.40
2013,04,24,04,33,8.40
2013,04,24,04,34,8.40
2013,04,24,04,35,8.40
2013,04,24,04,36,8.40
2013,04,24,04,37,8.40
2013,04,24,04,38,8.40
2013,04,24,04,39,8.40
2013,04,24,04,40,8.40
2013,04,24,04,41,8.40
2013,04,24,04,42,8.40
2013,04,24,04,43,8.40
2013,04,24,04,44,8.40
2013,04,24,04,45,8.40
2013,04,24,04,46,8.40
2013,04,24,04,47,8.40
2013,04,24,04,48,8.40
2013,04,24,04,49,8.40
2013,04,24,04,50,8.40
2013,04,24,04,51,8.40
2013,04,24,04,52,8.40
2013,04,24,04,53,8.40
2013,04,24,04,54,8.40
2013,04,24,04,55,8.40
2013,04,24,04,56,8.30
2013,04,24,04,57,8.30
2013,04,24,04,58,8.30
2013,04,24,04,59,8.30
2013,04,24,05,00,8.30
2013,04,24,05,01,8.30
2013,04,24,05,02,8.30
2013,04,24,05,03,8.30
2013,04,24,05,04,8.30
2013,04,24,05,05,8.30
2013,04,24,05,06,8.20
2013,04,24,05,07,8.30
2013,04,24,05,08,8.30
2013,04,24,05,09,8.30
2013,04,24,05,10,8.30
2013,04,24,05,11,8.30
2013,04,24,05,12,8.30
2013,04,24,05,13,8.30
2013,04,24,05,14,8.30
2013,04,24,05,15,8.30
2013,04,24,05,16,8.30
2013,04,24,05,17,8.40
2013,04,24,05,18,8.40
2013,04,24,05,19,8.40
2013,04,24,05,20,8.40
2013,04,24,05,21,8.40
2013,04,24,05,22,8.40
2013,04,24,05,23,8.40
2013,04,24,05,24,8.40
2013,04,24,05,25,8.50
2013,04,24,05,26,8.50
2013,04,24,05,27,8.50
2013,04,24,05,28,8.50
2013,04,24,05,29,8.60
2013,04,24,05,30,8.60
2013,04,24,05,31,8.60
2013,04,24,05,32,8.60
2013,04,24,05,33,8.60
2013,04,24,05,34,8.60
2013,04,24,05,35,8.60
2013,04,24,05,36,8.60
2013,04,24,05,37,8.60
2013,04,24,05,38,8.60
2013,04,24,05,39,8.50
2013,04,24,05,40,8.50
2013,04,24,05,41,8.50
2013,04,24,05,42,8.40
2013,04,24,05,43,8.40
2013,04,24,05,44,8.40
2013,04,24,05,45,8.30
2013,04,24,05,46,8.30
2013,04,24,05,47,8.30
2013,04,24,05,48,8.20
2013,04,24,05,49,8.20
2013,04,24,05,50,8.20
2013,04,24,05,51,8.10
2013,04,24,05,52,8.10
2013,04,24,05,53,8.10
2013,04,24,05,54,8.10
2013,04,24,05,55,8.10
2013,04,24,05,56,8.10
2013,04,24,05,57,8.00
2013,04,24,05,58,8.00
2013,04,24,05,59,8.00
2013,04,24,06,00,8.00
2013,04,24,06,01,7.90
2013,04,24,06,02,7.90
2013,04,24,06,03,7.90
2013,04,24,06,04,7.90
2013,04,24,06,05,7.90
2013,04,24,06,06,7.90
2013,04,24,06,07,7.80
2013,04,24,06,08,7.80
2013,04,24,06,09,7.80
2013,04,24,06,10,7.80
2013,04,24,06,11,7.80
2013,04,24,06,12,7.80
2013,04,24,06,13,7.80
2013,04,24,06,14,7.80
2013,04,24,06,15,7.80
2013,04,24,06,16,7.80
2013,04,24,06,17,7.80
2013,04,24,06,18,7.80
2013,04,24,06,19,7.80
2013,04,24,06,20,7.90
2013,04,24,06,21,7.90
2013,04,24,06,22,7.90
2013,04,24,06,23,7.90
2013,04,24,06,24,7.90
2013,04,24,06,25,7.90
2013,04,24,06,26,7.90
2013,04,24,06,27,7.90
2013,04,24,06,28,7.90
2013,04,24,06,29,8.00
2013,04,24,06,30,8.00
2013,04,24,06,31,8.00
2013,04,24,06,32,8.00
2013,04,24,06,33,8.00
2013,04,24,06,34,8.00
2013,04,24,06,35,8.00
2013,04,24,06,36,8.00
2013,04,24,06,37,8.10
2013,04,24,06,38,8.10
2013,04,24,06,39,8.10
2013,04,24,06,40,8.10
2013,04,24,06,41,8.10
2013,04,24,06,42,8.10
2013,04,24,06,43,8.10
2013,04,24,06,44,8.10
2013,04,24,06,45,8.10
2013,04,24,06,46,8.10
2013,04,24,06,47,8.20
2013,04,24,06,48,8.20
2013,04,24,06,49,8.20
2013,04,24,06,50,8.20
2013,04,24,06,51,8.20
2013,04,24,06,52,8.20
2013,04,24,06,53,8.30
2013,04,24,06,54,8.30
2013,04,24,06,55,8.30
2013,04,24,06,56,8.30
2013,04,24,06,57,8.40
2013,04,24,06,58,8.40
2013,04,24,06,59,8.40
2013,04,24,07,00,8.50
2013,04,24,07,01,8.50
2013,04,24,07,02,8.50
2013,04,24,07,03,8.60
2013,04,24,07,04,8.60
2013,04,24,07,05,8.60
2013,04,24,07,06,8.60
2013,04,24,07,07,8.60
2013,04,24,07,08,8.60
2013,04,24,07,09,8.60
2013,04,24,07,10,8.70
2013,04,24,07,11,8.70
2013,04,24,07,12,8.70
2013,04,24,07,13,8.70
2013,04,24,07,14,8.80
2013,04,24,07,15,8.80
2013,04,24,07,16,8.80
2013,04,24,07,17,8.90
2013,04,24,07,18,8.90
2013,04,24,07,19,8.90
2013,04,24,07,20,8.90
2013,04,24,07,21,9.00
2013,04,24,07,22,9.00
2013,04,24,07,23,9.10
2013,04,24,07,24,9.10
2013,04,24,07,25,9.20
2013,04,24,07,26,9.20
2013,04,24,07,27,9.30
2013,04,24,07,28,9.30
2013,04,24,07,29,9.30
2013,04,24,07,30,9.40
2013,04,24,07,31,9.40
2013,04,24,07,32,9.40
2013,04,24,07,33,9.50
2013,04,24,07,34,9.50
2013,04,24,07,35,9.60
2013,04,24,07,36,9.60
2013,04,24,07,37,9.60
2013,04,24,07,38,9.70
2013,04,24,07,39,9.80
2013,04,24,07,40,9.80
2013,04,24,07,41,9.80
2013,04,24,07,42,9.80
2013,04,24,07,43,9.90
2013,04,24,07,44,9.90
2013,04,24,07,45,10.00
2013,04,24,07,46,10.00
2013,04,24,07,47,10.10
2013,04,24,07,48,10.10
2013,04,24,07,49,10.20
2013,04,24,07,50,10.20
2013,04,24,07,51,10.30
2013,04,24,07,52,10.30
2013,04,24,07,53,10.40
2013,04,24,07,54,10.40
2013,04,24,07,55,10.50
2013,04,24,07,56,10.50
2013,04,24,07,57,10.60
2013,04,24,07,58,10.60
2013,04,24,07,59,10.60
2013,04,24,08,00,10.70
2013,04,24,08,01,10.70
2013,04,24,08,02,10.70
2013,04,24,08,03,10.80
2013,04,24,08,04,10.80
2013,04,24,08,05,10.90
2013,04,24,08,06,10.90
2013,04,24,08,07,10.90
2013,04,24,08,08,11.00
2013,04,24,08,09,11.10
2013,04,24,08,10,11.10
2013,04,24,08,11,11.20
2013,04,24,08,12,11.20
2013,04,24,08,13,11.20
2013,04,24,08,14,11.30
2013,04,24,08,15,11.40
2013,04,24,08,16,11.50
2013,04,24,08,17,11.50
2013,04,24,08,18,11.60
2013,04,24,08,19,11.70
2013,04,24,08,20,11.70
2013,04,24,08,21,11.80
2013,04,24,08,22,11.90
2013,04,24,08,23,12.00
2013,04,24,08,24,12.00
2013,04,24,08,25,12.10
2013,04,24,08,26,12.10
2013,04,24,08,27,12.20
2013,04,24,08,28,12.20
2013,04,24,08,29,12.20
2013,04,24,08,30,12.30
2013,04,24,08,31,12.30
2013,04,24,08,32,12.40
2013,04,24,08,33,12.50
2013,04,24,08,34,12.50
2013,04,24,08,35,12.60
2013,04,24,08,36,12.70
2013,04,24,08,37,12.70
2013,04,24,08,38,12.80
2013,04,24,08,39,12.80
2013,04,24,08,40,12.80
2013,04,24,08,41,12.90
2013,04,24,08,42,13.00
2013,04,24,08,43,13.00
2013,04,24,08,44,13.10
2013,04,24,08,45,13.10
2013,04,24,08,46,13.10
2013,04,24,08,47,13.10
2013,04,24,08,48,13.10
2013,04,24,08,49,13.20
2013,04,24,08,50,13.20
2013,04,24,08,51,13.30
2013,04,24,08,52,13.30
2013,04,24,08,53,13.30
2013,04,24,08,54,13.40
2013,04,24,08,55,13.40
2013,04,24,08,56,13.50
2013,04,24,08,57,13.50
2013,04,24,08,58,13.50
2013,04,24,08,59,13.50
2013,04,24,09,00,13.50
2013,04,24,09,01,13.50
2013,04,24,09,02,13.50
2013,04,24,09,03,13.50
2013,04,24,09,04,13.60
2013,04,24,09,05,13.50
2013,04,24,09,06,13.50
2013,04,24,09,07,13.50
2013,04,24,09,08,13.50
2013,04,24,09,09,13.40
2013,04,24,09,10,13.40
2013,04,24,09,11,13.30
2013,04,24,09,12,13.30
2013,04,24,09,13,13.20
2013,04,24,09,14,13.20
2013,04,24,09,15,13.20
2013,04,24,09,16,13.30
2013,04,24,09,17,13.40
2013,04,24,09,18,13.40
2013,04,24,09,19,13.50
2013,04,24,09,20,13.50
2013,04,24,09,21,13.60
2013,04,24,09,22,13.60
2013,04,24,09,23,13.70
2013,04,24,09,24,13.70
2013,04,24,09,25,13.70
2013,04,24,09,26,13.70
2013,04,24,09,27,13.60
2013,04,24,09,28,13.60
2013,04,24,09,29,13.60
2013,04,24,09,30,13.50
2013,04,24,09,31,13.50
2013,04,24,09,32,13.50
2013,04,24,09,33,13.40
2013,04,24,09,34,13.30
2013,04,24,09,35,13.30
2013,04,24,09,36,13.20
2013,04,24,09,37,13.20
2013,04,24,09,38,13.20
2013,04,24,09,39,13.20
2013,04,24,09,40,13.20
2013,04,24,09,41,13.20
2013,04,24,09,42,13.20
2013,04,24,09,43,13.10
2013,04,24,09,44,13.00
2013,04,24,09,45,12.90
2013,04,24,09,46,12.90
2013,04,24,09,47,13.00
2013,04,24,09,48,13.00
2013,04,24,09,49,12.90
2013,04,24,09,50,12.90
2013,04,24,09,51,12.90
2013,04,24,09,52,12.90
2013,04,24,09,53,13.00
2013,04,24,09,54,13.00
2013,04,24,09,55,13.10
2013,04,24,09,56,13.10
2013,04,24,09,57,13.20
2013,04,24,09,58,13.20
2013,04,24,09,59,13.30
2013,04,24,10,00,13.30
2013,04,24,10,01,13.30
2013,04,24,10,02,13.30
2013,04,24,10,03,13.30
2013,04,24,10,04,13.40
2013,04,24,10,05,13.40
2013,04,24,10,06,13.50
2013,04,24,10,07,13.60
2013,04,24,10,08,13.70
2013,04,24,10,09,13.70
2013,04,24,10,10,13.70
2013,04,24,10,11,13.80
2013,04,24,10,12,13.80
2013,04,24,10,13,13.80
2013,04,24,10,14,13.80
2013,04,24,10,15,13.80
2013,04,24,10,16,13.80
2013,04,24,10,17,13.80
2013,04,24,10,18,13.80
2013,04,24,10,19,13.80
2013,04,24,10,20,13.80
2013,04,24,10,21,13.90
2013,04,24,10,22,13.90
2013,04,24,10,23,13.90
2013,04,24,10,24,13.90
2013,04,24,10,25,13.80
2013,04,24,10,26,13.80
2013,04,24,10,27,13.80
2013,04,24,10,28,13.90
2013,04,24,10,29,13.90
2013,04,24,10,30,13.90
2013,04,24,10,31,14.00
2013,04,24,10,32,14.00
2013,04,24,10,33,13.90
2013,04,24,10,34,13.90
2013,04,24,10,35,13.90
2013,04,24,10,36,13.90
2013,04,24,10,37,13.90
2013,04,24,10,38,13.90
2013,04,24,10,39,13.90
2013,04,24,10,40,13.90
2013,04,24,10,41,13.90
2013,04,24,10,42,13.90
2013,04,24,10,43,13.90
2013,04,24,10,44,13.80
2013,04,24,10,45,13.80
2013,04,24,10,46,13.70
2013,04,24,10,47,13.70
2013,04,24,10,48,13.60
2013,04,24,10,49,13.60
2013,04,24,10,50,13.70
2013,04,24,10,51,13.70
2013,04,24,10,52,13.70
2013,04,24,10,53,13.80
2013,04,24,10,54,13.70
2013,04,24,10,55,13.80
2013,04,24,10,56,13.80
2013,04,24,10,57,13.80
2013,04,24,10,58,13.70
2013,04,24,10,59,13.70
2013,04,24,11,00,13.70
2013,04,24,11,01,13.70
2013,04,24,11,02,13.60
2013,04,24,11,03,13.60
2013,04,24,11,04,13.70
2013,04,24,11,05,13.80
2013,04,24,11,06,13.90
2013,04,24,11,07,14.10
2013,04,24,11,08,14.20
2013,04,24,11,09,14.30
2013,04,24,11,10,14.30
2013,04,24,11,11,14.20
2013,04,24,11,12,14.20
2013,04,24,11,13,14.10
2013,04,24,11,14,14.10
2013,04,24,11,15,14.10
2013,04,24,11,16,14.00
2013,04,24,11,17,13.90
2013,04,24,11,18,13.90
2013,04,24,11,19,13.80
2013,04,24,11,20,13.80
2013,04,24,11,21,13.80
2013,04,24,11,22,13.80
2013,04,24,11,23,13.80
2013,04,24,11,24,13.80
2013,04,24,11,25,13.80
2013,04,24,11,26,13.80
2013,04,24,11,27,13.80
2013,04,24,11,28,13.80
2013,04,24,11,29,13.70
2013,04,24,11,30,13.70
2013,04,24,11,31,13.70
2013,04,24,11,32,13.70
2013,04,24,11,33,13.70
2013,04,24,11,34,13.80
2013,04,24,11,35,13.90
2013,04,24,11,36,13.90
2013,04,24,11,37,14.00
2013,04,24,11,38,14.00
2013,04,24,11,39,14.00
2013,04,24,11,40,13.90
2013,04,24,11,41,13.80
2013,04,24,11,42,13.80
2013,04,24,11,43,13.80
2013,04,24,11,44,13.80
2013,04,24,11,45,13.90
2013,04,24,11,46,13.90
2013,04,24,11,47,13.80
2013,04,24,11,48,13.80
2013,04,24,11,49,13.80
2013,04,24,11,50,13.80
2013,04,24,11,51,13.80
2013,04,24,11,52,13.80
2013,04,24,11,53,13.80
2013,04,24,11,54,13.70
2013,04,24,11,55,13.70
2013,04,24,11,56,13.50
2013,04,24,11,57,13.50
2013,04,24,11,58,13.40
2013,04,24,11,59,13.40
2013,04,24,12,00,13.40
2013,04,24,12,01,13.50
2013,04,24,12,02,13.50
2013,04,24,12,03,13.50
2013,04,24,12,04,13.60
2013,04,24,12,05,13.60
2013,04,24,12,06,13.70
2013,04,24,12,07,13.70
2013,04,24,12,08,13.70
2013,04,24,12,09,13.70
2013,04,24,12,10,13.70
2013,04,24,12,11,13.70
2013,04,24,12,12,13.80
2013,04,24,12,13,13.80
2013,04,24,12,14,13.80
2013,04,24,12,15,13.90
2013,04,24,12,16,13.90
2013,04,24,12,17,14.00
2013,04,24,12,18,14.10
2013,04,24,12,19,14.20
2013,04,24,12,20,14.20
2013,04,24,12,21,14.20
2013,04,24,12,22,14.20
2013,04,24,12,23,14.20
2013,04,24,12,24,14.10
2013,04,24,12,25,14.10
2013,04,24,12,26,14.10
2013,04,24,12,27,14.10
2013,04,24,12,28,14.10
2013,04,24,12,29,14.10
2013,04,24,12,30,14.20
2013,04,24,12,31,14.20
2013,04,24,12,32,14.20
2013,04,24,12,33,14.20
2013,04,24,12,34,14.20
2013,04,24,12,35,14.30
2013,04,24,12,36,14.30
2013,04,24,12,37,14.30
2013,04,24,12,38,14.30
2013,04,24,12,39,14.20
2013,04,24,12,40,14.20
2013,04,24,12,41,14.20
2013,04,24,12,42,14.10
2013,04,24,12,43,14.20
2013,04,24,12,44,14.10
2013,04,24,12,45,14.10
2013,04,24,12,46,14.10
2013,04,24,12,47,14.00
2013,04,24,12,48,13.90
2013,04,24,12,49,13.90
2013,04,24,12,50,13.90
2013,04,24,12,51,14.00
2013,04,24,12,52,14.10
2013,04,24,12,53,14.10
2013,04,24,12,54,14.20
2013,04,24,12,55,14.20
2013,04,24,12,56,14.30
2013,04,24,12,57,14.30
2013,04,24,12,58,14.30
2013,04,24,12,59,14.40
2013,04,24,13,00,14.40
2013,04,24,13,01,14.50
2013,04,24,13,02,14.50
2013,04,24,13,03,14.50
2013,04,24,13,04,14.50
2013,04,24,13,05,14.50
2013,04,24,13,06,14.50
2013,04,24,13,07,14.50
2013,04,24,13,08,14.50
2013,04,24,13,09,14.60
2013,04,24,13,10,14.50
2013,04,24,13,11,14.50
2013,04,24,13,12,14.50
2013,04,24,13,13,14.50
2013,04,24,13,14,14.50
2013,04,24,13,15,14.60
2013,04,24,13,16,14.70
2013,04,24,13,17,14.90
2013,04,24,13,18,15.00
2013,04,24,13,19,15.00
2013,04,24,13,20,15.00
2013,04,24,13,21,15.00
2013,04,24,13,22,15.10
2013,04,24,13,23,15.20
2013,04,24,13,24,15.30
2013,04,24,13,25,15.40
2013,04,24,13,26,15.40
2013,04,24,13,27,15.40
2013,04,24,13,28,15.40
2013,04,24,13,29,15.40
2013,04,24,13,30,15.40
2013,04,24,13,31,15.30
2013,04,24,13,32,15.30
2013,04,24,13,33,15.40
2013,04,24,13,34,15.30
2013,04,24,13,35,15.30
2013,04,24,13,36,15.00
2013,04,24,13,37,15.00
2013,04,24,13,38,15.00
2013,04,24,13,39,14.80
2013,04,24,13,40,14.80
2013,04,24,13,41,14.70
2013,04,24,13,42,14.70
2013,04,24,13,43,14.70
2013,04,24,13,44,14.70
2013,04,24,13,45,14.70
2013,04,24,13,46,14.80
2013,04,24,13,47,15.00
2013,04,24,13,48,15.00
2013,04,24,13,49,15.00
2013,04,24,13,50,15.00
2013,04,24,13,51,15.00
2013,04,24,13,52,15.00
2013,04,24,13,53,15.00
2013,04,24,13,54,15.00
2013,04,24,13,55,15.10
2013,04,24,13,56,15.10
2013,04,24,13,57,15.10
2013,04,24,13,58,15.00
2013,04,24,13,59,15.00
2013,04,24,14,00,15.00
2013,04,24,14,01,15.00
2013,04,24,14,02,15.00
2013,04,24,14,03,15.00
2013,04,24,14,04,15.00
2013,04,24,14,05,15.00
2013,04,24,14,06,15.00
2013,04,24,14,07,15.00
2013,04,24,14,08,15.00
2013,04,24,14,09,15.00
2013,04,24,14,10,15.00
2013,04,24,14,11,15.00
2013,04,24,14,12,15.20
2013,04,24,14,13,15.30
2013,04,24,14,14,15.50
2013,04,24,14,15,15.60
2013,04,24,14,16,15.60
2013,04,24,14,17,15.70
2013,04,24,14,18,15.80
2013,04,24,14,19,15.80
2013,04,24,14,20,15.90
2013,04,24,14,21,15.90
2013,04,24,14,22,15.90
2013,04,24,14,23,15.90
2013,04,24,14,24,16.00
2013,04,24,14,25,16.10
2013,04,24,14,26,16.10
2013,04,24,14,27,16.20
2013,04,24,14,28,16.20
2013,04,24,14,29,16.20
2013,04,24,14,30,16.30
2013,04,24,14,31,16.30
2013,04,24,14,32,16.30
2013,04,24,14,33,16.30
2013,04,24,14,34,16.20
2013,04,24,14,35,16.10
2013,04,24,14,36,16.00
2013,04,24,14,37,15.90
2013,04,24,14,38,15.90
2013,04,24,14,39,15.90
2013,04,24,14,40,15.90
2013,04,24,14,41,15.90
2013,04,24,14,42,16.00
2013,04,24,14,43,16.00
2013,04,24,14,44,16.00
2013,04,24,14,45,16.00
2013,04,24,14,46,15.90
2013,04,24,14,47,15.80
2013,04,24,14,48,15.60
2013,04,24,14,49,15.40
2013,04,24,14,50,15.30
2013,04,24,14,51,15.40
2013,04,24,14,52,15.40
2013,04,24,14,53,15.50
2013,04,24,14,54,15.60
2013,04,24,14,55,15.70
2013,04,24,14,56,15.70
2013,04,24,14,57,15.80
2013,04,24,14,58,15.90
2013,04,24,14,59,15.90
2013,04,24,15,00,15.90
2013,04,24,15,01,15.90
2013,04,24,15,02,15.80
2013,04,24,15,03,15.80
2013,04,24,15,04,15.80
2013,04,24,15,05,15.80
2013,04,24,15,06,15.70
2013,04,24,15,07,15.70
2013,04,24,15,08,15.70
2013,04,24,15,09,15.70
2013,04,24,15,10,15.70
2013,04,24,15,11,15.80
2013,04,24,15,12,15.80
2013,04,24,15,13,15.90
2013,04,24,15,14,16.00
2013,04,24,15,15,16.00
2013,04,24,15,16,16.10
2013,04,24,15,17,16.10
2013,04,24,15,18,16.20
2013,04,24,15,19,16.30
2013,04,24,15,20,16.40
2013,04,24,15,21,16.40
2013,04,24,15,22,16.40
2013,04,24,15,23,16.30
2013,04,24,15,24,16.20
2013,04,24,15,25,16.20
2013,04,24,15,26,16.30
2013,04,24,15,27,16.30
2013,04,24,15,28,16.40
2013,04,24,15,29,16.40
2013,04,24,15,30,16.40
2013,04,24,15,31,16.50
2013,04,24,15,32,16.60
2013,04,24,15,33,16.70
2013,04,24,15,34,16.80
2013,04,24,15,35,16.90
2013,04,24,15,36,16.90
2013,04,24,15,37,16.90
2013,04,24,15,38,16.90
2013,04,24,15,39,17.00
2013,04,24,15,40,17.00
2013,04,24,15,41,17.00
2013,04,24,15,42,16.90
2013,04,24,15,43,16.90
2013,04,24,15,44,16.90
2013,04,24,15,45,16.80
2013,04,24,15,46,16.80
2013,04,24,15,47,16.70
2013,04,24,15,48,16.60
2013,04,24,15,49,16.40
2013,04,24,15,50,16.30
2013,04,24,15,51,16.30
2013,04,24,15,52,16.30
2013,04,24,15,53,16.30
2013,04,24,15,54,16.30
2013,04,24,15,55,16.40
2013,04,24,15,56,16.40
2013,04,24,15,57,16.50
2013,04,24,15,58,16.50
2013,04,24,15,59,16.60
2013,04,24,16,00,16.60
2013,04,24,16,01,16.60
2013,04,24,16,02,16.50
2013,04,24,16,03,16.50
2013,04,24,16,04,16.60
2013,04,24,16,05,16.60
2013,04,24,16,06,16.60
2013,04,24,16,07,16.60
2013,04,24,16,08,16.50
2013,04,24,16,09,16.50
2013,04,24,16,10,16.70
2013,04,24,16,11,16.80
2013,04,24,16,12,16.90
2013,04,24,16,13,16.90
2013,04,24,16,14,17.00
2013,04,24,16,15,17.10
2013,04,24,16,16,17.10
2013,04,24,16,17,17.10
2013,04,24,16,18,17.10
2013,04,24,16,19,17.10
2013,04,24,16,20,17.10
2013,04,24,16,21,17.10
2013,04,24,16,22,17.00
2013,04,24,16,23,17.00
2013,04,24,16,24,17.10
2013,04,24,16,25,17.20
2013,04,24,16,26,17.40
2013,04,24,16,27,17.50
2013,04,24,16,28,17.70
2013,04,24,16,29,17.80
2013,04,24,16,30,17.80
2013,04,24,16,31,18.00
2013,04,24,16,32,18.00
2013,04,24,16,33,18.10
2013,04,24,16,34,18.20
2013,04,24,16,35,18.30
2013,04,24,16,36,18.40
2013,04,24,16,37,18.50
2013,04,24,16,38,18.60
2013,04,24,16,39,18.60
2013,04,24,16,40,18.70
2013,04,24,16,41,18.70
2013,04,24,16,42,18.70
2013,04,24,16,43,18.70
2013,04,24,16,44,18.70
2013,04,24,16,45,18.70
2013,04,24,16,46,18.70
2013,04,24,16,47,18.70
2013,04,24,16,48,18.80
2013,04,24,16,49,18.80
2013,04,24,16,50,18.90
2013,04,24,16,51,19.00
2013,04,24,16,52,19.00
2013,04,24,16,53,19.00
2013,04,24,16,54,19.00
2013,04,24,16,55,18.90
2013,04,24,16,56,18.90
2013,04,24,16,57,18.90
2013,04,24,16,58,18.90
2013,04,24,16,59,18.90
2013,04,24,17,00,18.90
2013,04,24,17,01,19.00
2013,04,24,17,02,19.10
2013,04,24,17,03,19.20
2013,04,24,17,04,19.20
2013,04,24,17,05,19.30
2013,04,24,17,06,19.30
2013,04,24,17,07,19.20
2013,04,24,17,08,19.20
2013,04,24,17,09,19.10
2013,04,24,17,10,19.10
2013,04,24,17,11,19.10
2013,04,24,17,12,19.10
2013,04,24,17,13,19.10
2013,04,24,17,14,19.00
2013,04,24,17,15,18.80
2013,04,24,17,16,18.70
2013,04,24,17,17,18.50
2013,04,24,17,18,18.40
2013,04,24,17,19,18.20
2013,04,24,17,20,18.20
2013,04,24,17,21,18.10
2013,04,24,17,22,18.00
2013,04,24,17,23,17.90
2013,04,24,17,24,17.90
2013,04,24,17,25,17.90
2013,04,24,17,26,17.90
2013,04,24,17,27,18.00
2013,04,24,17,28,18.10
2013,04,24,17,29,18.10
2013,04,24,17,30,18.10
2013,04,24,17,31,18.10
2013,04,24,17,32,18.20
2013,04,24,17,33,18.20